| time (UTC) | temp F | wind direction | speed MPH | gust MPH | rain 1hr in | rain 24hr in | rain mn in | humidity % | barometer mb |
| 20260507013536 | 59 | 0.0 | 0.0 | 0.00 | 0.00 | 0.00 | 55 | 1010.0 | |
| 20260507012517 | 59 | 0.0 | 0.0 | 0.00 | 0.00 | 0.00 | 54 | 1010.1 | |
| 20260507011516 | 59 | 0.0 | 0.0 | 0.00 | 0.00 | 0.00 | 53 | 1010.2 | |
| 20260507010517 | 59 | 0.0 | 0.0 | 0.00 | 0.00 | 0.00 | 52 | 1010.1 | |
| 20260507005516 | 60 | 0.0 | 0.0 | 0.00 | 0.00 | 0.00 | 52 | 1010.3 | |
| 20260507004537 | 60 | 0.0 | 1.0 | 0.00 | 0.00 | 0.00 | 52 | 1010.4 | |
| 20260507003517 | 61 | 0.0 | 2.0 | 0.00 | 0.00 | 0.00 | 49 | 1010.3 | |
| 20260507002556 | 62 | 0.0 | 0.0 | 0.00 | 0.00 | 0.00 | 45 | 1010.2 | |
| 20260507001517 | 62 | 0.0 | 4.0 | 0.00 | 0.00 | 0.00 | 43 | 1010.3 | |
| 20260507000536 | 62 | 0.0 | 0.0 | 0.00 | 0.00 | 0.00 | 42 | 1010.4 | |
| 20260506235516 | 62 | 0.0 | 0.0 | 0.00 | 0.00 | 0.00 | 43 | 1010.4 | |
| 20260506234517 | 63 | 0.0 | 0.0 | 0.00 | 0.00 | 0.00 | 44 | 1010.3 | |
| 20260506233516 | 63 | 0.0 | 0.0 | 0.00 | 0.00 | 0.00 | 44 | 1010.3 | |
| 20260506232517 | 63 | 0.0 | 0.0 | 0.00 | 0.00 | 0.00 | 43 | 1010.2 | |
| 20260506231517 | 62 | 0.0 | 0.0 | 0.00 | 0.00 | 0.00 | 43 | 1010.0 | |
| 20260506230516 | 62 | 0.0 | 0.0 | 0.00 | 0.00 | 0.00 | 43 | 1010.0 | |
| 20260506225516 | 62 | 0.0 | 0.0 | 0.00 | 0.00 | 0.00 | 42 | 1010.0 | |
| 20260506224517 | 63 | 0.0 | 0.0 | 0.00 | 0.00 | 0.00 | 42 | 1010.1 | |
| 20260506223516 | 63 | 0.0 | 0.0 | 0.00 | 0.00 | 0.00 | 41 | 1010.0 | |
| 20260506222516 | 64 | 0.0 | 0.0 | 0.00 | 0.00 | 0.00 | 40 | 1009.9 | |
| 20260506221517 | 65 | 0.0 | 0.0 | 0.00 | 0.00 | 0.00 | 38 | 1010.0 | |
| 20260506220537 | 65 | 0.0 | 0.0 | 0.00 | 0.00 | 0.00 | 36 | 1010.0 | |
| 20260506215516 | 64 | 0.0 | 0.0 | 0.00 | 0.00 | 0.00 | 36 | 1009.9 | |
| 20260506214516 | 64 | 0.0 | 0.0 | 0.00 | 0.00 | 0.00 | 36 | 1010.0 | |
| 20260506213516 | 64 | 0.0 | 0.0 | 0.00 | 0.00 | 0.00 | 35 | 1009.9 | |
| 20260506212516 | 64 | 0.0 | 0.0 | 0.00 | 0.00 | 0.00 | 36 | 1009.9 | |
| 20260506211516 | 64 | 0.0 | 0.0 | 0.00 | 0.00 | 0.00 | 34 | 1009.9 | |
| 20260506210516 | 64 | 0.0 | 0.0 | 0.00 | 0.00 | 0.00 | 36 | 1009.6 | |
| 20260506205516 | 64 | 0.0 | 0.0 | 0.00 | 0.00 | 0.00 | 36 | 1009.5 | |
| 20260506204516 | 64 | 0.0 | 0.0 | 0.00 | 0.00 | 0.00 | 35 | 1009.4 | |
| 20260506203516 | 64 | 0.0 | 0.0 | 0.00 | 0.00 | 0.00 | 35 | 1009.4 | |
| 20260506202516 | 64 | 0.0 | 0.0 | 0.00 | 0.00 | 0.00 | 35 | 1009.4 | |
| 20260506201516 | 64 | 0.0 | 0.0 | 0.00 | 0.00 | 0.00 | 35 | 1009.2 | |
| 20260506200516 | 64 | 0.0 | 0.0 | 0.00 | 0.00 | 0.00 | 35 | 1009.2 | |
| 20260506195516 | 64 | 0.0 | 0.0 | 0.00 | 0.00 | 0.00 | 35 | 1009.1 | |
| 20260506194516 | 64 | 0.0 | 0.0 | 0.00 | 0.00 | 0.00 | 35 | 1009.0 | |
| 20260506193516 | 65 | 0.0 | 0.0 | 0.00 | 0.00 | 0.00 | 36 | 1008.9 | |
| 20260506192516 | 65 | 0.0 | 0.0 | 0.00 | 0.00 | 0.00 | 37 | 1008.9 | |
| 20260506191516 | 66 | 0.0 | 0.0 | 0.00 | 0.00 | 0.00 | 37 | 1008.8 | |
| 20260506190516 | 67 | 0.0 | 0.0 | 0.00 | 0.00 | 0.00 | 34 | 1008.8 | |
| 20260506185516 | 68 | 0.0 | 0.0 | 0.00 | 0.00 | 0.00 | 32 | 1008.7 | |
| 20260506184536 | 68 | 0.0 | 0.0 | 0.00 | 0.00 | 0.00 | 31 | 1008.7 | |
| 20260506183516 | 69 | 0.0 | 0.0 | 0.00 | 0.00 | 0.00 | 32 | 1008.8 | |
| 20260506182516 | 69 | 0.0 | 0.0 | 0.00 | 0.00 | 0.00 | 32 | 1008.4 | |
| 20260506181516 | 70 | 0.0 | 0.0 | 0.00 | 0.00 | 0.00 | 32 | 1008.6 | |
| 20260506180536 | 70 | 0.0 | 0.0 | 0.00 | 0.00 | 0.00 | 31 | 1008.6 | |
| 20260506175516 | 70 | 0.0 | 0.0 | 0.00 | 0.00 | 0.00 | 32 | 1008.5 | |
| 20260506174516 | 70 | 0.0 | 1.0 | 0.00 | 0.00 | 0.00 | 31 | 1008.5 | |
| 20260506173516 | 71 | 0.0 | 1.0 | 0.00 | 0.00 | 0.00 | 31 | 1008.6 | |
| 20260506172516 | 71 | 0.0 | 0.0 | 0.00 | 0.00 | 0.00 | 31 | 1008.7 | |
| 20260506171516 | 71 | 0.0 | 0.0 | 0.00 | 0.00 | 0.00 | 31 | 1008.7 | |
| 20260506170516 | 73 | 0.0 | 0.0 | 0.00 | 0.00 | 0.00 | 29 | 1008.8 | |
| 20260506165516 | 73 | 0.0 | 1.0 | 0.00 | 0.00 | 0.00 | 30 | 1008.9 | |
| 20260506164516 | 73 | 0.0 | 0.0 | 0.00 | 0.00 | 0.00 | 30 | 1008.9 | |
| 20260506163516 | 72 | 0.0 | 0.0 | 0.00 | 0.00 | 0.00 | 30 | 1008.9 | |
| 20260506162536 | 73 | 0.0 | 1.0 | 0.00 | 0.00 | 0.00 | 30 | 1009.0 | |
| 20260506161516 | 73 | 0.0 | 0.0 | 0.00 | 0.00 | 0.00 | 29 | 1009.0 | |
| 20260506160516 | 74 | 0.0 | 1.0 | 0.00 | 0.00 | 0.00 | 29 | 1009.1 | |
| 20260506155516 | 74 | 0.0 | 0.0 | 0.00 | 0.00 | 0.00 | 29 | 1009.0 | |
| 20260506154516 | 74 | 0.0 | 2.0 | 0.00 | 0.00 | 0.00 | 30 | 1009.2 | |
| 20260506153516 | 73 | 0.0 | 0.0 | 0.00 | 0.00 | 0.00 | 30 | 1009.1 | |
| 20260506152516 | 73 | 0.0 | 0.0 | 0.00 | 0.00 | 0.00 | 30 | 1009.3 | |
| 20260506151516 | 74 | 0.0 | 0.0 | 0.00 | 0.00 | 0.00 | 29 | 1009.3 | |
| 20260506150516 | 74 | 0.0 | 0.0 | 0.00 | 0.00 | 0.00 | 30 | 1009.5 | |
| 20260506145516 | 73 | 0.0 | 0.0 | 0.00 | 0.00 | 0.00 | 32 | 1009.6 | |
| 20260506144516 | 73 | 0.0 | 0.0 | 0.00 | 0.00 | 0.00 | 31 | 1009.6 | |
| 20260506143516 | 73 | 0.0 | 1.0 | 0.00 | 0.00 | 0.00 | 30 | 1009.8 | |
| 20260506142516 | 74 | 0.0 | 0.0 | 0.00 | 0.00 | 0.00 | 30 | 1010.1 | |
| 20260506141516 | 74 | 0.0 | 0.0 | 0.00 | 0.00 | 0.00 | 30 | 1010.2 | |
| 20260506140516 | 73 | 0.0 | 0.0 | 0.00 | 0.00 | 0.00 | 31 | 1010.1 | |
| 20260506135516 | 74 | 0.0 | 0.0 | 0.00 | 0.00 | 0.00 | 30 | 1010.3 | |
| 20260506134516 | 73 | 0.0 | 0.0 | 0.00 | 0.00 | 0.00 | 32 | 1010.4 | |
| 20260506133515 | 73 | 0.0 | 0.0 | 0.00 | 0.00 | 0.00 | 31 | 1010.5 | |
| 20260506132516 | 74 | 0.0 | 0.0 | 0.00 | 0.00 | 0.00 | 30 | 1010.6 | |
| 20260506131535 | 75 | 0.0 | 0.0 | 0.00 | 0.00 | 0.00 | 30 | 1010.7 | |
| 20260506130516 | 75 | 0.0 | 0.0 | 0.00 | 0.00 | 0.00 | 31 | 1010.6 | |
| 20260506125516 | 74 | 0.0 | 0.0 | 0.00 | 0.00 | 0.00 | 31 | 1010.9 | |
| 20260506124516 | 74 | 0.0 | 0.0 | 0.00 | 0.00 | 0.00 | 31 | 1010.9 | |
| 20260506123516 | 74 | 0.0 | 0.0 | 0.00 | 0.00 | 0.00 | 31 | 1011.0 | |
| 20260506122535 | 73 | 0.0 | 0.0 | 0.00 | 0.00 | 0.00 | 32 | 1010.9 | |
| 20260506121516 | 72 | 0.0 | 0.0 | 0.00 | 0.00 | 0.00 | 32 | 1010.9 | |
| 20260506120516 | 71 | 0.0 | 0.0 | 0.00 | 0.00 | 0.00 | 32 | 1011.0 | |
| 20260506115516 | 72 | 0.0 | 0.0 | 0.00 | 0.00 | 0.00 | 33 | 1011.2 | |
| 20260506114515 | 70 | 0.0 | 0.0 | 0.00 | 0.00 | 0.00 | 33 | 1011.2 | |
| 20260506113515 | 71 | 0.0 | 0.0 | 0.00 | 0.00 | 0.00 | 32 | 1011.4 | |
| 20260506112516 | 71 | 0.0 | 0.0 | 0.00 | 0.00 | 0.00 | 32 | 1011.6 | |
| 20260506111515 | 71 | 0.0 | 0.0 | 0.00 | 0.00 | 0.00 | 31 | 1011.6 | |
| 20260506110516 | 71 | 0.0 | 0.0 | 0.00 | 0.00 | 0.00 | 32 | 1011.8 | |
| 20260506105515 | 71 | 0.0 | 0.0 | 0.00 | 0.00 | 0.00 | 31 | 1011.9 | |
| 20260506104516 | 71 | 0.0 | 0.0 | 0.00 | 0.00 | 0.00 | 31 | 1012.0 | |
| 20260506103515 | 71 | 0.0 | 0.0 | 0.00 | 0.00 | 0.00 | 33 | 1012.0 | |
| 20260506102516 | 70 | 0.0 | 0.0 | 0.00 | 0.00 | 0.00 | 36 | 1012.2 | |
| 20260506101516 | 69 | 0.0 | 0.0 | 0.00 | 0.00 | 0.00 | 37 | 1012.1 | |
| 20260506100516 | 69 | 0.0 | 0.0 | 0.00 | 0.00 | 0.00 | 36 | 1012.2 | |
| 20260506095515 | 68 | 0.0 | 0.0 | 0.00 | 0.00 | 0.00 | 37 | 1012.3 | |
| 20260506094515 | 67 | 0.0 | 0.0 | 0.00 | 0.00 | 0.00 | 39 | 1012.1 | |
| 20260506093515 | 67 | 0.0 | 0.0 | 0.00 | 0.00 | 0.00 | 39 | 1012.1 | |
| 20260506092516 | 67 | 0.0 | 0.0 | 0.00 | 0.00 | 0.00 | 40 | 1012.1 | |
| 20260506091515 | 66 | 0.0 | 0.0 | 0.00 | 0.00 | 0.00 | 42 | 1012.1 | |
| 20260506090516 | 66 | 0.0 | 0.0 | 0.00 | 0.00 | 0.00 | 42 | 1012.1 | |
| 20260506085516 | 64 | 0.0 | 0.0 | 0.00 | 0.00 | 0.00 | 45 | 1012.1 | |
| 20260506084515 | 65 | 0.0 | 0.0 | 0.00 | 0.00 | 0.00 | 46 | 1012.2 | |
| 20260506083516 | 63 | 0.0 | 0.0 | 0.00 | 0.00 | 0.00 | 47 | 1012.0 | |
| 20260506082515 | 64 | 0.0 | 0.0 | 0.00 | 0.00 | 0.00 | 46 | 1012.0 | |
| 20260506081516 | 64 | 0.0 | 0.0 | 0.00 | 0.00 | 0.00 | 45 | 1012.1 | |
| 20260506080515 | 63 | 0.0 | 0.0 | 0.00 | 0.00 | 0.00 | 45 | 1012.0 | |
| 20260506073515 | 62 | 0.0 | 0.0 | 0.00 | 0.00 | 0.00 | 48 | 1012.0 | |
| 20260506072515 | 62 | 0.0 | 0.0 | 0.00 | 0.00 | 0.00 | 47 | 1012.0 | |
| 20260506071515 | 61 | 0.0 | 0.0 | 0.00 | 0.00 | 0.00 | 47 | 1012.0 | |
| 20260506070516 | 61 | 0.0 | 0.0 | 0.00 | 0.00 | 0.00 | 48 | 1012.0 | |
| 20260506062517 | 58 | 0.0 | 0.0 | 0.00 | 0.00 | 0.00 | 52 | 1011.9 | |
| 20260506061517 | 56 | 0.0 | 0.0 | 0.00 | 0.00 | 0.00 | 57 | 1011.8 | |
| 20260506060517 | 54 | 0.0 | 0.0 | 0.00 | 0.00 | 0.00 | 61 | 1011.5 | |
| 20260506050517 | 51 | 0.0 | 0.0 | 0.00 | 0.00 | 0.00 | 62 | 1011.4 | |
| 20260506044517 | 52 | 0.0 | 0.0 | 0.00 | 0.00 | 0.00 | 61 | 1011.3 | |
| 20260506043537 | 52 | 0.0 | 0.0 | 0.00 | 0.00 | 0.00 | 60 | 1011.3 | |
| 20260506042517 | 52 | 0.0 | 0.0 | 0.00 | 0.00 | 0.00 | 60 | 1011.5 | |
| 20260506041517 | 52 | 0.0 | 0.0 | 0.00 | 0.00 | 0.00 | 60 | 1011.5 | |
| 20260506040517 | 52 | 0.0 | 0.0 | 0.00 | 0.00 | 0.00 | 60 | 1011.5 | |
| 20260506035517 | 52 | 0.0 | 0.0 | 0.00 | 0.00 | 0.00 | 60 | 1011.7 | |
| 20260506034517 | 52 | 0.0 | 0.0 | 0.00 | 0.00 | 0.00 | 60 | 1011.8 | |
| 20260506033517 | 52 | 0.0 | 0.0 | 0.00 | 0.00 | 0.00 | 60 | 1011.8 | |
| 20260506032517 | 53 | 0.0 | 0.0 | 0.00 | 0.00 | 0.00 | 60 | 1011.9 | |
| 20260506031517 | 53 | 0.0 | 0.0 | 0.00 | 0.00 | 0.00 | 59 | 1011.9 | |
| 20260506030517 | 53 | 0.0 | 0.0 | 0.00 | 0.00 | 0.00 | 58 | 1011.9 | |
| 20260506025537 | 53 | 0.0 | 0.0 | 0.00 | 0.00 | 0.00 | 58 | 1012.0 | |
| 20260506024517 | 54 | 0.0 | 0.0 | 0.00 | 0.00 | 0.00 | 57 | 1012.1 | |
| 20260506023517 | 54 | 0.0 | 0.0 | 0.00 | 0.00 | 0.00 | 56 | 1012.1 | |
| 20260506022517 | 54 | 0.0 | 0.0 | 0.00 | 0.00 | 0.00 | 56 | 1011.9 | |
| 20260506021517 | 54 | 0.0 | 0.0 | 0.00 | 0.00 | 0.00 | 56 | 1012.0 | |
| 20260506020517 | 54 | 0.0 | 0.0 | 0.00 | 0.00 | 0.00 | 55 | 1012.0 | |
| 20260506015517 | 55 | 0.0 | 0.0 | 0.00 | 0.00 | 0.00 | 54 | 1012.1 | |
| 20260506014517 | 55 | 0.0 | 0.0 | 0.00 | 0.00 | 0.00 | 53 | 1012.0 |